Wind_Speed
20 20 20 21 21 19 17 17 16 17 16 15 15 16 15 14 13 12 12 12 12 11 12 13 14 13 12 10 9 8 8 10 12 13 14 15 14 14 13 12 11 11 11 11 11 11 12 13 14 14 15 15 15 15 16 17 17 16 16 16 16 16 16 16 16 16 16 16 17 17 18 19 19 20 20 20 19 19 18 18 18 17 16 16 15
22 22 22 22 23 22 20 19 19 19 19 18 18 18 17 16 14 13 12 12 11 11 12 13 14 14 13 12 11 10 10 11 12 13 13 14 13 13 12 11 10 10 10 10 10 11 12 13 13 13 13 13 14 14 14 14 14 14 14 14 15 15 15 15 16 16 16 16 17 18 18 19 19 19 20 20 19 19 18 17 17 17 16 16 16
24 24 23 24 25 24 22 22 22 22 21 20 20 19 18 16 15 14 13 13 12 12 12 13 14 14 14 15 15 14 14 14 14 14 14 14 14 14 13 12 11 11 11 11 11 12 13 13 13 13 13 12 13 13 13 13 13 13 13 14 14 15 15 16 16 16 16 17 17 18 18 18 19 19 19 19 18 18 17 17 17 17 17 17 17
27 26 25 25 25 24 23 22 22 22 23 22 21 19 18 17 17 17 16 15 14 13 14 14 14 14 15 15 15 15 15 16 16 16 16 16 16 15 15 14 13 12 12 12 13 14 14 14 14 14 13 13 13 14 14 14 14 14 14 14 15 15 15 16 16 17 17 18 18 19 19 19 19 19 19 18 18 18 18 18 18 18 18 18 18
28 28 27 26 25 24 23 21 20 20 22 23 21 19 18 18 18 18 18 17 17 16 16 16 16 15 15 14 15 15 16 17 18 18 18 18 18 17 17 16 14 13 14 14 15 15 15 15 15 15 15 14 15 15 15 14 14 15 15 16 16 16 16 17 18 18 19 20 20 20 20 20 20 19 19 19 19 20 20 20 21 21 21 21 20
29 29 28 27 26 25 24 21 19 19 20 21 20 20 19 19 19 19 18 18 18 18 17 17 17 16 15 15 15 15 16 17 18 19 19 19 19 18 18 17 15 15 15 16 16 16 17 17 17 17 16 16 16 15 15 15 15 16 17 17 17 17 18 19 20 20 21 21 22 22 21 21 21 21 21 21 22 22 23 23 23 23 23 23 22
31 30 29 28 27 26 24 23 21 19 19 19 20 20 20 20 20 19 19 18 18 18 17 17 17 17 16 16 15 16 17 17 18 18 19 19 19 19 18 17 16 16 16 17 17 18 18 19 19 19 18 17 17 16 16 16 17 17 18 18 18 19 20 20 21 22 22 23 23 22 22 22 22 23 23 23 23 23 23 24 24 24 24 24 23
32 30 28 28 28 26 24 23 23 21 20 19 19 20 20 20 21 21 20 19 19 19 18 18 18 17 16 16 16 16 17 18 18 19 19 19 19 19 18 17 17 17 18 18 19 19 20 20 20 20 19 19 18 18 18 19 19 19 20 20 21 21 21 22 23 23 23 23 23 23 23 23 24 24 24 23 23 23 22 23 24 25 25 25 24
33 30 28 27 27 28 26 23 22 22 22 21 20 20 20 19 20 21 22 21 20 20 19 19 18 17 17 16 16 17 18 18 19 19 20 20 20 20 19 19 19 19 19 19 20 20 21 21 21 21 21 21 20 20 21 21 21 21 22 22 23 23 23 24 24 24 24 24 24 24 24 24 25 25 24 23 23 23 24 24 25 25 25 25 26
33 32 29 26 25 28 28 24 21 22 23 23 23 23 22 22 22 22 23 24 22 21 20 19 19 18 17 17 17 18 18 19 20 20 20 20 20 20 20 20 20 20 20 20 21 21 22 22 23 23 23 23 23 23 23 23 23 24 24 24 25 25 25 26 26 26 26 26 26 26 26 26 26 26 26 25 25 25 26 26 27 26 26 27 28
34 33 32 28 26 27 27 26 24 23 22 23 24 24 23 25 27 25 22 23 23 22 21 20 19 18 17 17 17 18 19 20 21 21 21 21 21 21 21 21 21 21 22 22 22 23 24 24 25 25 25 25 25 25 25 26 26 26 26 26 27 27 28 28 28 28 28 28 28 28 28 28 28 28 28 28 27 27 27 28 28 29 29 30 31
33 32 32 31 29 27 25 24 23 23 24 25 26 24 20 20 24 24 21 21 23 22 21 19 18 17 17 17 17 18 19 21 22 23 23 23 23 23 23 23 23 24 24 24 25 25 26 27 27 27 27 27 27 27 28 28 28 28 29 29 29 29 30 30 30 30 30 30 31 30 30 31 31 31 30 30 30 29 29 29 30 30 32 33 34
31 30 30 30 29 27 25 24 23 23 23 24 24 23 20 18 20 22 21 22 23 22 20 18 17 16 16 17 17 17 18 20 22 24 25 25 26 26 26 26 26 26 26 26 27 27 27 28 28 28 28 29 29 30 30 31 31 31 31 31 32 32 33 33 33 34 34 34 34 34 34 34 35 34 34 34 34 34 35 36 36 36 36 37 39
29 30 29 29 29 27 26 26 26 24 21 19 19 19 19 18 19 20 20 22 23 22 19 17 17 16 16 17 17 18 19 20 22 24 25 27 28 28 28 28 28 28 28 27 28 28 28 29 29 30 30 31 31 32 33 33 34 34 34 34 35 35 36 36 36 37 37 38 38 38 38 38 38 39 39 40 40 40 41 42 42 42 42 42 44
31 32 29 26 25 25 25 24 25 24 21 19 18 18 18 19 19 20 20 21 23 22 19 18 18 18 18 18 18 19 19 20 22 24 26 27 29 29 29 29 29 29 29 29 29 29 30 31 31 32 32 33 34 35 36 36 37 37 37 37 38 38 39 39 39 39 40 40 41 41 41 42 42 43 43 44 44 44 44 45 46 46 46 46 46
27 28 26 24 23 24 24 23 24 24 21 19 19 19 19 19 20 20 20 22 24 23 22 21 20 20 20 20 21 21 21 21 22 24 25 27 29 30 31 31 31 31 30 30 30 31 32 32 33 34 35 36 36 37 38 39 40 40 40 40 41 41 42 42 42 43 43 43 44 44 45 45 46 46 47 47 47 47 47 47 48 48 49 49 49
19 19 21 23 24 24 24 25 26 24 21 20 20 20 20 20 21 21 22 23 24 23 24 23 22 22 22 22 23 23 23 23 24 25 26 28 29 31 32 32 33 32 32 32 32 33 33 34 35 36 37 38 38 40 41 42 43 43 43 44 44 44 45 45 45 46 47 47 48 48 49 49 50 50 50 50 51 51 51 51 51 51 52 52 52
17 18 20 22 24 25 25 27 27 24 23 22 22 22 22 22 22 23 24 24 24 24 24 24 23 24 24 24 25 26 26 26 26 27 28 29 30 32 34 34 34 34 34 34 35 35 36 37 38 38 39 40 40 42 43 44 45 46 47 47 48 47 47 48 48 48 49 50 51 51 51 52 53 53 54 54 54 55 55 55 55 55 55 55 55
17 19 21 25 27 27 28 29 27 25 25 23 22 22 21 21 23 24 25 24 24 25 26 26 26 26 25 26 27 28 28 28 28 30 30 31 32 34 35 36 36 36 36 37 37 38 38 39 40 41 42 42 43 43 45 46 48 49 50 51 51 51 51 52 53 52 52 53 53 54 54 55 55 56 56 57 57 58 58 57 57 59 58 58 58
19 20 22 25 26 26 28 28 26 25 24 23 22 23 22 23 24 25 25 25 26 27 27 28 28 26 25 27 29 30 31 31 31 31 32 33 34 35 36 38 38 39 39 40 41 42 42 43 43 43 44 44 44 45 47 49 50 52 53 54 55 56 56 57 58 58 57 57 57 58 58 58 59 59 59 60 60 61 61 60 60 61 61 61 61
23 23 24 24 24 24 25 24 23 23 23 22 23 26 27 28 29 29 28 29 29 29 28 29 30 29 29 31 32 32 32 32 32 33 35 36 37 39 40 40 41 43 44 45 45 46 46 46 46 45 46 46 47 49 51 53 54 55 57 58 59 60 61 61 62 63 62 62 62 62 62 62 63 63 63 64 64 64 63 63 63 63 63 62 62
25 26 28 29 29 28 29 28 28 28 27 27 27 28 28 28 29 30 31 32 34 34 33 33 33 33 33 34 35 35 35 34 33 34 36 38 40 42 43 43 45 46 48 49 50 50 50 50 48 48 49 51 53 54 55 56 57 58 59 60 61 63 64 64 65 66 66 67 67 67 67 67 67 67 66 66 65 64 63 64 64 65 64 63 62
27 28 30 32 34 35 34 34 33 33 32 31 31 32 32 31 30 31 32 33 35 37 38 39 38 38 37 37 38 38 38 38 37 37 37 37 39 41 42 44 46 47 49 50 50 51 51 51 51 52 54 56 57 57 58 59 60 61 62 63 64 66 67 68 69 69 69 70 70 70 69 69 70 69 68 68 67 65 64 65 66 66 66 65 64
31 31 31 32 34 35 35 35 35 35 35 34 33 35 36 37 37 37 36 36 37 38 39 40 41 42 43 43 43 43 43 44 44 43 43 42 41 42 44 47 49 50 51 52 53 53 54 55 56 57 59 60 61 62 62 63 63 64 65 66 67 68 69 70 70 71 70 70 70 70 70 70 70 70 69 70 68 67 66 68 68 68 67 67 66
32 32 32 32 32 33 34 34 35 34 33 33 33 33 33 35 37 38 39 40 41 41 42 43 44 46 47 47 47 46 45 45 46 46 47 46 46 48 50 52 54 55 57 58 59 59 60 61 62 63 64 65 65 65 65 65 65 65 67 68 69 70 70 71 72 72 72 72 72 72 72 72 72 71 72 73 70 68 69 70 70 69 68 67 67
34 34 33 33 32 32 32 32 32 32 32 32 32 33 33 35 36 37 39 40 42 43 45 47 48 50 50 50 49 48 48 49 50 50 51 50 50 52 53 55 57 59 62 63 64 64 64 65 66 66 66 67 66 66 66 66 66 67 68 69 70 71 72 73 73 74 74 74 73 74 74 74 73 74 75 73 71 69 70 70 69 69 68 68 68
36 35 35 34 33 33 32 33 33 33 33 34 35 35 36 38 39 40 41 42 43 45 47 48 50 51 52 52 53 54 55 55 55 55 55 54 54 54 55 57 58 61 63 65 66 66 66 66 67 67 67 67 67 68 68 68 68 69 70 71 72 72 73 74 74 74 75 74 74 74 74 74 74 75 74 72 72 71 71 70 70 70 70 70 69
37 37 36 36 35 34 34 34 34 35 35 36 37 38 39 40 41 43 44 45 47 48 49 51 52 53 54 55 55 56 57 57 57 56 56 55 55 55 56 57 58 59 61 62 64 65 66 67 68 69 70 70 71 72 72 73 73 73 74 74 75 75 75 76 76 76 76 76 76 75 75 76 76 75 74 74 74 74 72 72 72 71 71 70 69
37 36 36 36 35 35 34 34 35 35 36 37 38 39 40 41 42 43 44 46 47 48 49 50 51 52 52 53 53 54 55 55 55 56 56 56 57 57 58 59 60 61 63 64 66 67 69 70 72 73 74 75 76 77 77 78 78 78 79 79 79 79 79 79 79 79 78 79 78 77 77 77 77 76 76 76 76 76 75 74 73 72 71 69 66
33 34 34 34 34 33 34 34 35 36 36 37 38 39 40 41 41 42 43 44 45 46 47 49 50 51 52 53 54 55 56 56 57 58 59 60 61 61 62 63 65 66 67 69 70 71 73 74 75 76 77 78 79 79 80 80 80 80 80 80 80 80 80 80 80 79 79 79 79 78 78 77 77 76 76 75 75 74 73 72 70 69 67 63 58
32 32 32 33 33 34 35 36 37 38 38 39 39 40 40 41 42 44 45 46 47 48 49 50 52 53 54 55 56 57 58 59 60 61 62 63 64 65 66 67 68 69 71 72 73 73 74 74 75 75 75 75 75 75 75 75 75 74 74 74 74 74 74 74 73 73 73 72 72 72 71 71 70 70 69 69 68 66 65 63 61 58 56 54 51
34 35 35 35 36 36 37 38 39 40 40 41 42 43 43 44 45 46 47 48 49 50 51 52 54 55 56 57 58 59 61 61 62 63 64 65 66 67 68 68 69 70 70 70 70 70 70 69 69 68 68 67 66 66 66 66 66 66 66 66 66 66 66 66 66 66 65 64 64 63 63 62 62 62 61 61 60 59 58 56 53 50 49 49 49
38 38 38 39 39 39 40 41 42 43 44 44 45 46 47 47 48 48 49 50 51 52 53 54 55 57 58 59 60 60 61 62 63 63 64 64 65 65 65 65 65 64 64 63 63 62 62 61 61 60 60 60 60 60 60 60 60 60 60 61 61 61 62 62 61 61 60 59 58 56 55 55 54 54 53 53 52 52 51 49 48 47 46 46 47
40 40 40 40 41 41 42 43 43 44 45 46 47 47 48 48 49 49 50 50 51 52 53 53 54 55 56 57 57 58 58 59 59 59 59 60 60 59 59 58 58 57 56 56 55 55 56 55 55 55 55 55 55 55 55 55 55 55 56 56 57 57 57 57 57 57 57 56 54 52 51 50 49 48 47 46 45 45 44 44 44 44 44 45 49
41 40 40 40 40 41 41 41 42 43 43 44 45 45 45 46 46 47 47 48 48 49 49 50 51 52 52 53 53 54 54 54 54 54 54 54 53 53 52 52 51 51 51 51 51 51 51 51 50 50 50 50 49 49 49 50 51 52 52 53 54 55 56 56 56 56 56 55 54 53 51 50 48 46 45 43 41 40 41 41 41 42 43 44 48
40 40 40 40 40 40 40 41 41 42 42 43 43 44 44 44 45 45 46 46 47 47 47 48 48 49 49 49 50 49 49 49 49 48 48 47 47 47 47 47 47 47 47 47 46 46 45 45 44 44 44 45 45 46 47 48 50 51 53 54 55 56 57 58 58 58 58 57 56 55 54 52 49 47 45 43 41 39 39 39 39 40 41 42 44
39 39 39 39 40 40 40 41 41 41 41 42 42 42 43 43 43 43 43 43 43 43 43 44 44 44 44 44 44 43 43 43 42 42 42 42 42 43 43 43 42 42 41 41 40 40 40 40 40 41 42 43 45 46 47 49 51 53 55 56 57 58 59 59 60 60 59 59 58 57 56 54 51 48 46 43 40 39 38 38 38 37 37 39 40
38 38 38 38 38 38 38 38 38 38 38 38 38 39 39 39 38 38 38 38 38 38 38 38 38 39 39 39 38 38 38 38 38 38 38 38 38 38 37 37 36 36 36 36 37 37 38 39 40 41 42 43 45 46 48 50 51 52 53 53 54 54 54 54 54 54 54 54 54 54 54 53 51 49 46 43 40 38 37 36 36 35 34 34 35
35 35 35 35 35 35 35 35 34 34 34 34 34 34 34 34 34 34 34 34 34 34 34 34 34 35 35 35 35 35 35 35 35 35 34 34 33 32 32 32 32 33 34 35 36 37 38 39 40 41 42 43 44 45 46 46 46 46 47 47 46 46 46 45 45 43 41 39 38 39 42 44 44 44 43 41 39 37 35 32 30 28 27 27 29
33 33 33 33 33 32 32 32 32 32 32 32 32 32 32 31 31 30 30 31 31 31 32 32 32 32 33 33 33 33 33 32 32 31 30 30 29 29 30 31 32 33 33 34 35 36 37 37 38 39 40 41 42 42 41 40 40 40 39 38 37 36 37 35 32 27 22 19 18 19 23 28 32 35 37 38 36 33 30 26 23 22 24 26 30
33 32 32 32 31 31 30 30 30 29 29 29 29 29 29 29 28 28 29 29 30 30 30 30 30 30 30 30 30 30 29 29 28 28 28 28 28 30 31 31 32 32 33 33 34 35 35 36 37 37 38 38 38 36 35 34 33 31 29 27 26 26 24 21 16 13 11 12 12 13 15 18 23 26 29 31 31 29 26 25 23 24 25 27 28
32 31 31 30 29 29 28 28 28 27 27 28 28 28 28 28 27 27 28 28 28 28 28 28 28 28 28 28 27 27 27 27 27 28 28 29 30 30 31 31 31 31 31 32 32 32 33 34 34 35 35 34 32 29 28 27 25 22 21 21 21 19 14 10 10 11 12 12 12 13 14 15 16 18 21 24 27 28 28 28 27 28 29 27 27
30 30 29 29 28 28 27 27 27 26 26 27 27 27 27 26 26 26 27 27 26 26 26 26 26 26 26 26 26 26 27 27 28 28 29 29 29 30 30 30 29 29 29 29 29 30 30 31 32 32 32 30 26 23 22 21 18 17 17 18 18 14 10 7 8 10 11 12 15 17 17 17 18 20 22 24 27 28 27 25 25 26 28 27 27
29 29 28 28 27 27 26 26 26 25 25 25 25 25 25 25 25 25 25 25 25 25 25 25 25 25 25 25 25 26 26 27 27 27 28 28 28 29 29 29 28 28 27 27 27 27 28 29 29 29 28 25 21 19 18 17 14 12 12 13 12 11 9 7 7 7 7 9 12 15 18 20 20 21 22 23 25 25 23 21 21 21 22 24 26
28 27 27 27 26 26 25 25 24 24 24 24 24 24 24 24 24 24 24 24 23 23 24 24 24 24 24 24 24 25 25 26 26 27 27 28 28 28 28 28 27 26 26 25 25 25 26 26 27 26 25 22 18 16 17 16 13 10 10 10 11 10 8 6 6 7 7 8 10 11 13 15 16 17 18 19 20 20 20 19 19 19 20 21 23
26 26 25 25 25 24 24 23 23 23 23 23 22 22 22 22 22 22 22 23 23 23 23 22 22 22 22 22 23 24 25 26 27 27 28 28 28 28 28 27 26 25 24 23 23 23 24 25 24 23 22 20 17 16 16 16 15 13 12 12 11 10 9 7 6 7 7 8 9 9 11 12 12 13 14 15 16 17 17 17 18 20 21 23 24
25 24 24 24 23 23 23 22 22 22 22 21 21 21 21 21 21 21 22 22 21 21 20 19 19 19 20 21 23 24 26 27 28 28 28 28 28 28 27 26 25 24 24 23 23 23 23 23 22 21 20 18 17 16 15 15 15 16 16 15 14 13 12 10 9 7 5 5 6 7 10 12 13 14 15 15 16 16 16 17 18 20 22 24 25
23 23 23 23 22 22 22 21 21 21 21 21 21 21 20 20 20 20 20 19 19 18 17 17 18 19 21 22 24 25 27 28 28 28 28 28 28 27 26 25 25 24 24 24 24 24 23 22 21 19 18 17 15 15 14 14 14 15 16 16 15 14 13 12 10 8 7 6 5 5 6 8 11 13 15 15 16 16 16 16 17 17 19 21 23
22 22 22 22 22 21 21 20 20 20 20 20 20 19 19 19 19 18 18 17 16 16 17 18 19 20 22 23 25 26 27 27 27 27 27 27 27 26 25 25 24 24 25 25 24 24 23 22 20 19 17 16 14 13 13 14 14 15 16 16 15 14 13 12 11 9 8 8 7 6 4 5 6 8 10 12 13 14 15 16 16 16 17 18 19
22 22 22 22 21 20 20 20 20 20 20 20 19 18 18 18 17 17 16 16 16 16 17 19 20 21 22 24 26 27 27 27 26 26 26 26 26 26 25 24 24 24 24 24 23 22 22 21 19 17 17 16 14 13 13 13 14 15 16 16 16 15 14 14 14 12 10 9 8 7 5 4 4 4 5 7 8 9 11 12 14 15 16 17 18
21 21 21 21 21 20 20 20 20 20 19 19 18 17 17 17 16 16 16 16 16 17 18 19 20 21 23 25 26 27 27 26 26 25 25 25 25 25 24 24 23 23 22 22 21 20 20 19 16 14 14 15 14 13 13 14 14 15 15 16 16 15 15 16 17 17 15 13 11 10 9 8 7 5 4 4 5 6 7 9 10 12 13 15 16
Wind_Direction
238 237 236 234 231 233 236 236 233 229 227 230 235 237 239 239 235 232 229 225 220 217 217 216 213 213 218 223 226 229 233 235 235 235 235 236 237 238 239 241 240 243 247 249 252 257 261 264 267 269 271 272 273 274 275 277 280 282 284 285 286 286 287 289 290 291 291 292 291 291 291 291 292 292 292 292 293 294 296 297 300 302 304 305 305
237 235 235 233 233 234 235 233 230 227 226 230 235 238 241 242 238 233 229 224 218 211 210 210 209 211 217 225 234 241 244 243 238 234 233 233 234 233 231 232 233 236 240 245 251 257 261 264 267 268 270 271 273 275 277 280 283 285 287 287 288 289 290 291 291 291 290 289 288 289 289 289 290 290 291 292 293 295 297 300 301 303 303 303 303
236 235 234 233 234 235 234 231 229 226 224 226 231 236 239 241 241 239 235 231 227 222 218 218 218 221 225 230 235 239 240 240 237 235 234 233 232 230 229 230 233 237 243 250 257 262 263 263 265 267 268 269 272 276 280 283 286 287 288 289 289 290 291 291 291 290 289 289 288 289 289 289 290 291 292 294 296 298 300 302 302 302 302 301 299
238 236 234 234 235 236 235 233 230 228 224 224 226 230 235 237 239 240 239 237 235 233 231 230 232 234 235 236 236 235 233 231 232 233 234 234 234 234 235 235 236 240 249 256 259 260 260 260 261 262 263 265 268 272 275 278 280 281 281 282 284 285 286 286 286 286 286 287 288 288 288 289 289 290 290 292 293 295 296 296 296 296 295 293 291
239 237 235 235 235 235 235 232 230 228 225 223 223 226 231 234 236 237 239 240 239 238 238 238 240 241 240 239 236 234 231 227 227 230 232 234 236 237 238 237 239 246 253 257 257 257 257 257 257 258 259 261 264 266 267 268 270 271 272 273 275 277 278 279 280 281 282 282 283 283 283 284 284 284 284 284 286 287 287 287 287 287 287 286 286
237 237 236 234 234 234 232 230 229 228 224 221 219 221 226 230 233 234 235 238 238 237 238 240 242 243 242 240 237 234 232 228 227 229 232 235 237 238 238 238 243 251 256 257 257 256 257 256 256 257 256 258 261 263 263 263 263 264 266 267 269 270 272 274 275 276 277 277 277 277 276 276 276 276 277 278 280 282 282 282 281 281 281 281 282
234 235 235 233 231 231 230 227 228 228 224 219 217 218 222 226 230 232 233 236 238 238 237 238 240 241 242 242 239 234 232 229 229 231 233 236 238 238 239 241 247 253 256 257 257 257 257 256 255 255 255 256 258 259 260 260 260 261 262 264 266 267 269 271 272 272 272 272 272 272 272 271 271 271 273 275 277 279 280 280 280 279 278 278 279
235 234 232 231 230 230 229 227 228 228 224 221 220 220 222 225 228 231 232 234 238 241 241 238 237 239 241 242 240 235 231 229 229 231 233 235 237 238 241 245 250 254 256 256 257 257 256 257 256 256 257 257 258 259 259 259 260 261 262 263 265 266 267 268 268 268 268 269 269 269 269 268 269 270 272 274 275 276 277 278 278 277 277 276 276
238 234 231 230 231 233 234 230 229 229 226 226 228 230 232 232 232 233 233 234 237 240 241 240 237 236 239 241 241 236 230 229 229 230 232 234 236 238 242 246 251 254 255 257 258 259 259 259 259 258 258 259 260 261 261 261 262 263 265 266 267 267 267 267 267 267 267 267 268 268 268 269 270 271 272 272 272 274 276 277 277 277 276 275 274
242 237 232 231 233 236 236 232 232 233 231 234 237 239 243 244 239 236 234 232 233 234 236 238 237 236 238 241 242 239 234 231 231 232 234 236 239 241 245 248 250 252 254 256 258 259 259 259 258 257 257 257 259 260 262 263 264 265 266 267 268 267 267 266 266 267 268 268 269 269 269 270 270 270 271 270 270 271 274 275 277 276 275 274 274
243 238 234 233 236 238 236 234 238 239 237 241 242 242 250 249 238 233 232 232 231 231 234 239 241 240 241 243 245 244 241 238 237 238 239 241 243 245 248 249 250 251 252 254 255 256 256 256 255 255 256 257 259 261 263 265 266 268 268 269 269 269 268 267 266 267 268 269 269 269 269 269 269 270 270 270 270 271 274 276 276 276 275 275 276
238 236 235 235 238 238 233 233 239 240 239 242 241 241 251 249 231 223 227 232 232 231 234 240 244 246 247 248 247 246 245 243 243 243 244 245 246 247 249 251 252 253 254 255 256 257 256 256 256 256 258 260 262 263 266 267 269 269 269 269 269 268 267 266 266 266 267 268 268 268 268 269 270 270 270 271 271 272 275 276 277 278 278 277 278
232 232 233 233 234 235 235 236 239 239 241 243 240 238 243 242 228 223 227 230 230 229 232 239 247 250 252 253 252 252 250 249 248 246 246 247 248 250 251 252 253 254 254 256 257 258 258 257 257 257 259 261 264 266 268 269 269 270 269 269 269 268 267 265 265 265 265 266 266 267 267 268 270 271 271 272 273 274 276 278 279 280 280 279 280
224 227 229 230 232 235 237 237 235 232 234 236 234 234 238 239 234 231 232 230 226 226 231 241 248 252 255 258 259 260 258 256 254 251 250 250 250 252 253 254 255 254 255 256 257 258 258 258 258 258 259 261 264 265 267 269 270 270 270 270 270 269 268 267 267 266 266 267 267 269 269 270 271 273 274 274 276 277 279 280 282 282 282 281 281
226 227 226 224 227 230 229 227 224 220 221 229 235 237 238 240 238 235 233 229 225 225 232 241 246 249 254 257 259 261 261 260 258 257 255 254 254 254 254 255 255 255 255 256 256 257 257 257 258 259 260 263 266 267 268 269 270 270 270 270 270 269 268 268 267 267 268 268 270 271 272 273 273 274 275 276 277 278 279 280 281 281 282 282 282
223 220 217 215 220 223 219 214 213 214 222 237 244 242 239 238 237 234 230 229 229 232 238 243 246 249 252 253 255 257 259 260 261 261 260 258 257 256 255 254 254 255 256 256 257 257 258 259 260 262 264 268 269 269 270 272 272 272 272 272 271 270 269 268 267 267 267 268 269 270 271 272 273 274 275 276 277 278 278 279 279 280 281 282 283
213 211 213 216 219 217 211 211 214 220 233 245 248 247 242 236 234 234 234 235 237 240 244 245 248 252 254 254 256 257 258 260 261 263 263 262 260 258 256 254 254 254 255 257 258 259 261 262 264 266 268 271 271 271 272 273 274 274 274 273 272 271 269 268 267 267 268 268 269 271 272 273 274 275 276 277 278 279 279 279 280 280 281 283 283
215 216 214 215 215 213 212 216 221 228 239 247 248 245 241 237 235 236 238 241 243 245 247 248 250 253 255 256 255 256 256 257 259 261 262 263 261 259 256 255 254 254 255 257 259 261 263 265 267 269 270 272 272 272 273 275 275 276 276 275 275 273 271 269 268 267 268 269 270 272 273 275 276 277 278 279 280 281 281 282 282 282 283 283 283
216 217 215 213 211 211 214 219 224 232 239 243 243 240 239 238 238 237 239 243 245 245 245 246 249 254 257 257 255 254 255 255 257 259 261 262 261 260 258 257 256 256 257 260 263 265 267 268 269 270 271 271 272 273 275 276 277 277 277 277 277 276 275 274 273 273 273 274 275 276 276 277 278 279 280 281 281 282 283 283 283 283 284 283 283
220 221 223 219 215 216 219 220 223 229 233 235 234 233 233 234 235 235 237 240 243 244 244 245 246 248 251 254 255 255 255 255 256 259 260 261 262 261 261 260 260 260 262 265 267 268 269 269 270 271 272 272 274 275 277 277 277 278 278 278 278 277 277 277 277 277 277 277 277 278 278 278 279 280 280 281 281 282 282 282 282 282 283 282 283
223 221 222 222 219 220 223 223 225 230 235 237 236 233 231 231 234 235 236 236 240 242 244 245 244 241 241 247 252 255 257 258 261 263 264 263 263 261 260 260 261 263 265 266 267 267 268 269 269 270 272 273 275 275 276 277 277 278 278 278 278 278 277 277 276 276 276 275 275 276 277 278 279 280 280 280 280 280 280 281 281 281 282 282 282
229 226 225 225 226 229 233 238 242 244 246 246 242 237 235 235 236 236 236 236 238 241 243 245 246 244 242 245 250 254 258 260 261 261 262 263 262 262 261 262 263 264 265 266 266 267 268 269 269 271 273 275 275 275 276 277 277 277 276 276 276 276 276 275 275 275 275 275 275 276 277 278 279 280 280 280 279 279 280 280 281 281 281 281 282
235 232 229 229 232 237 241 246 249 250 249 247 244 242 242 242 242 242 241 239 239 241 244 248 250 250 249 249 249 251 254 255 256 256 257 258 259 260 262 263 264 265 265 266 267 268 269 271 272 274 276 276 276 276 277 277 277 276 276 275 275 275 275 275 275 275 275 276 276 275 276 277 279 280 280 279 279 279 280 279 279 279 280 281 282
239 238 236 234 234 237 240 243 245 247 247 246 245 245 246 247 248 250 249 248 247 247 248 250 252 254 254 254 254 254 254 254 255 256 257 258 260 262 263 264 264 265 265 266 268 270 272 274 274 275 276 276 277 277 277 276 276 276 276 276 275 275 275 275 275 275 275 276 275 275 276 277 278 279 279 278 278 278 278 278 278 279 280 280 280
242 242 241 239 238 238 239 241 242 243 245 248 250 252 252 253 254 254 254 254 254 254 254 255 256 256 257 256 257 258 259 260 262 263 264 266 267 268 269 269 269 270 269 269 271 273 274 275 275 276 276 277 277 277 277 276 275 275 275 275 275 275 275 275 275 275 275 275 276 276 276 276 277 277 277 276 277 277 276 277 277 278 278 279 279
242 241 241 241 240 239 240 242 243 245 247 251 255 257 257 258 259 259 259 259 259 260 260 261 261 261 261 261 262 264 268 270 272 273 273 273 272 270 270 271 271 272 272 273 274 275 275 276 276 277 277 278 278 278 278 277 276 275 275 274 275 275 275 275 275 275 276 276 276 276 276 276 276 275 275 276 276 275 275 275 276 277 277 278 279
242 241 241 242 243 244 245 246 248 250 252 255 257 258 259 260 260 261 262 262 263 263 264 264 265 266 267 268 270 272 274 276 277 277 277 276 275 273 272 272 272 271 272 273 274 275 276 277 277 277 278 278 278 278 278 277 277 276 276 275 275 275 274 274 274 274 274 274 274 274 274 274 274 274 275 275 274 274 274 274 275 276 276 277 278
241 241 241 242 244 246 248 251 253 256 259 260 261 262 262 262 263 263 263 264 264 265 266 267 268 270 271 272 274 275 276 277 277 277 277 277 277 276 276 275 274 273 273 273 274 274 275 275 276 276 276 277 277 277 277 277 277 277 277 276 276 275 275 274 274 274 273 273 273 273 273 272 272 272 273 273 272 273 273 274 274 275 276 276 277
240 241 242 243 245 247 249 252 255 258 260 261 262 263 264 264 265 265 266 266 266 267 268 269 270 271 272 273 274 275 275 276 276 277 277 277 278 278 278 278 277 277 277 276 276 276 276 276 276 276 276 276 276 276 276 276 276 276 276 276 276 276 275 275 274 274 274 274 274 274 273 273 273 273 272 272 272 273 273 273 274 274 275 276 277
245 245 247 248 250 252 253 255 256 257 258 258 259 260 261 263 264 265 266 267 268 269 269 270 271 272 273 274 275 275 276 276 277 277 277 278 278 278 279 279 279 278 278 278 277 277 277 277 277 276 276 276 276 275 275 275 275 275 275 275 275 275 275 275 275 275 275 275 275 275 274 274 274 273 273 273 273 273 273 273 273 274 274 274 275
253 254 254 255 256 257 257 258 258 259 259 260 260 261 262 263 264 266 267 268 269 270 271 271 272 273 274 274 275 276 276 276 277 277 277 278 278 278 278 278 278 278 277 277 277 277 277 276 276 276 276 276 276 276 276 276 275 275 275 275 275 275 275 275 275 275 275 274 275 275 275 274 274 274 273 273 273 273 272 272 271 270 269 269 268
258 259 259 259 260 260 260 261 261 262 263 263 264 265 266 266 267 268 269 270 270 271 272 272 273 274 274 274 275 275 276 276 277 277 277 277 278 277 277 277 277 277 277 277 277 277 277 277 277 277 277 277 277 277 277 277 277 276 276 276 275 275 275 275 274 274 274 274 273 274 274 274 273 273 273 273 273 273 272 271 269 266 262 262 262
262 262 263 263 264 264 264 264 265 266 266 267 268 268 269 270 271 272 272 273 273 274 274 274 275 275 275 276 276 276 276 276 277 277 277 277 277 277 277 277 277 277 277 277 277 277 278 278 278 278 278 278 278 278 278 278 278 277 277 277 277 276 276 276 275 275 274 274 273 273 272 272 272 272 273 273 273 273 272 271 268 264 258 256 255
266 266 267 267 267 267 267 267 267 268 269 269 270 270 271 271 272 272 273 273 274 274 275 275 275 275 275 276 276 276 276 276 276 276 276 276 277 277 277 277 277 278 278 278 278 279 279 279 280 280 280 280 280 280 280 280 280 280 280 279 279 279 278 278 278 277 276 275 274 273 271 270 270 270 271 271 272 272 271 270 267 263 257 251 248
269 269 269 269 269 269 269 269 269 269 269 269 270 271 271 272 272 273 273 274 275 275 275 276 276 276 276 276 276 276 276 276 276 276 276 277 277 277 278 278 278 279 279 279 280 280 281 281 282 282 282 282 283 283 282 282 282 282 281 280 280 279 279 278 277 276 275 275 274 272 270 268 267 266 267 268 269 270 271 269 266 262 256 250 246
270 270 270 270 270 270 270 270 270 270 271 271 272 273 274 274 275 275 276 276 276 276 276 275 275 275 275 275 275 275 275 276 276 276 277 277 278 278 279 279 280 280 281 282 282 283 284 284 284 284 284 284 284 284 284 283 283 282 281 281 280 279 278 277 276 274 273 272 270 269 267 265 264 263 262 263 265 268 270 269 267 263 257 251 246
271 271 271 271 272 272 272 272 273 273 274 274 275 275 276 276 277 277 277 276 276 275 274 274 273 273 273 273 274 274 275 276 277 278 279 280 280 281 282 283 284 284 285 285 286 286 286 286 287 286 286 287 287 286 286 285 284 284 283 282 282 281 280 279 278 276 274 271 269 267 265 263 260 258 258 259 262 265 267 269 269 265 259 252 247
271 271 271 272 272 272 273 273 273 273 274 274 275 275 276 276 276 277 276 276 275 274 274 274 274 275 275 276 277 278 279 279 281 282 283 284 285 285 286 286 287 287 287 288 289 289 289 289 289 289 289 289 289 288 288 288 287 287 287 287 287 288 287 285 283 280 277 273 269 265 262 259 257 254 252 254 257 261 266 269 268 263 258 252 248
268 269 269 270 270 271 271 271 272 273 273 274 275 275 276 277 278 278 278 278 277 277 278 279 280 281 281 282 283 283 284 285 285 286 287 287 287 287 287 287 288 289 290 291 292 292 292 292 292 292 292 292 292 292 292 292 292 293 294 295 295 295 292 290 288 286 283 278 272 265 258 254 251 248 246 247 250 256 263 265 262 257 252 246 242
267 267 268 268 269 269 270 271 272 273 274 275 276 277 278 279 280 281 281 281 282 282 284 284 285 285 286 286 287 288 288 289 289 289 289 288 287 287 287 289 290 292 293 293 293 293 293 293 294 295 296 297 298 298 298 297 297 299 301 301 301 300 296 294 293 291 284 275 267 260 252 246 242 239 237 238 243 252 256 254 249 242 234 229 228
266 266 266 267 268 268 269 270 271 273 274 275 277 278 280 281 283 284 284 284 285 286 287 287 287 287 287 288 289 289 290 290 289 289 287 287 287 288 290 292 293 294 293 293 293 294 295 296 298 299 301 303 304 303 302 302 303 305 305 307 310 312 307 299 291 279 260 247 244 240 234 232 230 229 229 232 237 242 240 236 233 228 222 221 223
264 264 265 265 267 268 269 270 272 273 275 276 278 279 281 282 283 283 283 284 285 286 286 286 286 287 287 288 288 288 288 288 287 287 287 288 289 290 292 294 294 294 293 294 296 297 299 301 302 304 306 308 307 305 304 305 306 308 310 312 316 322 321 305 277 262 250 241 231 215 201 194 192 196 207 218 223 223 221 220 223 224 224 227 229
261 262 263 264 266 267 268 270 272 273 274 275 276 277 279 280 281 281 281 282 283 283 284 284 285 286 286 286 286 286 287 287 287 287 288 289 291 292 294 294 294 294 295 297 299 301 303 306 307 309 311 311 308 304 304 305 305 309 316 317 317 322 329 320 289 268 250 236 224 213 205 197 190 190 199 210 214 216 218 223 228 231 234 237 238
259 260 261 262 263 264 266 267 268 270 271 272 273 275 276 277 278 278 278 278 279 280 280 281 282 283 284 285 286 287 288 288 289 290 291 292 293 294 294 294 294 295 297 299 301 304 307 310 312 314 316 314 307 300 302 304 303 309 323 329 329 329 326 313 295 279 257 242 231 222 216 215 213 211 214 219 222 227 235 243 246 247 247 247 244
256 257 258 259 260 262 263 264 265 267 268 269 270 271 272 273 273 273 273 274 275 276 278 279 281 283 284 286 287 289 290 291 292 293 293 293 294 293 293 293 293 294 296 297 300 304 310 315 318 320 321 316 304 293 296 300 300 305 319 331 337 338 332 311 284 267 255 249 245 233 222 217 218 219 222 225 229 235 242 246 248 249 248 246 244
254 254 256 257 258 260 261 262 263 264 265 266 266 266 266 266 266 267 268 270 273 275 277 279 281 284 286 289 291 292 293 294 294 294 294 293 293 292 291 290 291 291 292 294 298 303 309 317 322 325 325 318 302 290 291 296 297 298 304 310 314 316 318 313 296 272 252 243 240 234 226 222 224 226 227 228 230 234 239 243 245 246 245 243 241
252 253 254 255 257 258 259 260 261 261 261 261 261 260 260 260 262 264 267 270 272 274 277 279 282 286 290 292 294 295 296 296 296 295 293 291 290 289 287 287 287 288 290 292 296 300 306 314 321 324 323 316 303 291 290 294 294 292 292 292 293 297 305 312 315 307 281 253 241 232 226 225 226 227 229 231 232 234 237 241 244 244 244 243 243
250 251 252 254 255 256 257 257 257 256 256 255 254 255 256 258 261 264 266 268 270 272 275 279 285 289 292 294 297 298 298 297 295 293 290 288 287 286 285 285 285 286 288 290 294 298 302 307 314 318 317 313 304 294 289 290 292 292 291 293 297 303 308 312 316 315 302 291 289 280 255 239 233 231 231 233 235 236 237 237 239 240 241 242 241
249 250 251 252 253 254 253 252 251 250 249 249 250 252 254 257 260 261 263 264 266 270 276 283 288 290 293 296 299 299 299 297 294 291 288 287 286 285 285 285 285 285 287 289 293 297 300 304 309 312 312 308 303 296 290 286 286 288 291 295 300 306 308 308 308 306 298 291 292 293 286 268 253 243 238 236 235 236 236 236 234 233 232 232 232
247 247 249 250 250 249 248 246 246 246 246 246 247 249 252 254 256 257 259 261 266 273 280 286 289 291 295 298 300 299 298 296 293 289 287 285 285 285 284 284 284 285 286 289 292 297 301 304 305 308 309 306 300 297 296 292 288 286 286 288 290 293 295 297 299 300 298 289 282 282 287 289 282 268 256 249 244 241 240 240 239 238 236 235 233
246 246 246 246 245 244 242 242 243 243 243 243 244 246 249 251 253 255 259 264 271 278 283 287 289 293 297 300 301 301 300 298 295 290 286 283 283 283 284 284 284 284 286 289 292 297 304 305 302 301 305 306 302 297 297 296 294 290 288 287 287 288 289 290 291 293 294 291 286 283 283 284 288 289 280 263 256 256 255 253 252 250 249 247 243
Height
5761 5762 5763 5764 5764 5765 5766 5767 5768 5769 5770 5770 5770 5771 5771 5772 5772 5773 5773 5774 5775 5776 5778 5779 5779 5780 5781 5781 5782 5783 5784 5785 5785 5786 5786 5787 5787 5788 5789 5789 5790 5791 5791 5791 5792 5792 5793 5793 5794 5794 5795 5795 5795 5795 5795 5794 5794 5794 5794 5793 5793 5793 5793 5793 5793 5793 5793 5793 5792 5792 5792 5792 5792 5791 5791 5791 5790 5790 5789 5788 5788 5787 5787 5786 5785
5758 5759 5760 5761 5762 5762 5763 5764 5765 5766 5767 5767 5768 5769 5769 5770 5771 5771 5772 5773 5774 5775 5776 5777 5778 5778 5779 5780 5780 5781 5782 5783 5783 5784 5785 5785 5786 5787 5787 5788 5789 5789 5790 5790 5790 5791 5791 5791 5792 5792 5793 5793 5793 5793 5793 5792 5792 5792 5792 5792 5792 5792 5791 5791 5791 5791 5791 5791 5791 5791 5790 5790 5790 5789 5789 5788 5788 5787 5787 5786 5786 5785 5785 5784 5783
5755 5756 5757 5758 5759 5759 5760 5761 5761 5762 5763 5764 5765 5767 5768 5769 5769 5770 5771 5772 5773 5774 5774 5775 5776 5776 5777 5778 5778 5779 5780 5780 5781 5782 5783 5784 5784 5785 5786 5787 5787 5787 5788 5788 5789 5789 5789 5789 5790 5790 5791 5791 5791 5790 5790 5790 5790 5790 5790 5790 5790 5790 5790 5789 5790 5789 5789 5789 5789 5789 5788 5788 5787 5787 5786 5786 5785 5785 5785 5784 5784 5783 5783 5783 5782
5752 5753 5754 5755 5756 5757 5758 5758 5759 5760 5761 5762 5763 5765 5766 5767 5768 5769 5770 5770 5771 5772 5773 5773 5774 5774 5775 5775 5776 5777 5777 5778 5779 5780 5780 5781 5782 5783 5784 5785 5785 5786 5786 5786 5787 5787 5787 5787 5787 5788 5788 5788 5788 5788 5788 5788 5788 5789 5789 5788 5788 5788 5788 5788 5788 5788 5787 5787 5787 5786 5786 5785 5785 5784 5784 5784 5783 5783 5783 5782 5782 5782 5781 5781 5780
5749 5750 5751 5752 5753 5755 5755 5756 5757 5757 5758 5760 5761 5762 5763 5764 5765 5767 5768 5768 5770 5770 5771 5772 5772 5772 5772 5773 5773 5774 5775 5776 5776 5777 5778 5779 5780 5781 5781 5782 5783 5783 5784 5784 5784 5785 5785 5785 5785 5786 5786 5786 5785 5786 5786 5786 5786 5786 5786 5787 5787 5787 5786 5786 5786 5786 5785 5785 5785 5784 5784 5783 5782 5782 5782 5781 5781 5781 5781 5780 5780 5779 5779 5778 5778
5746 5747 5748 5749 5750 5751 5753 5754 5755 5755 5756 5757 5759 5760 5761 5762 5763 5764 5765 5766 5767 5768 5769 5770 5770 5770 5770 5771 5771 5772 5772 5773 5774 5775 5776 5776 5777 5778 5779 5780 5781 5781 5782 5782 5782 5783 5783 5783 5783 5784 5784 5784 5783 5783 5784 5784 5784 5784 5784 5784 5785 5785 5784 5784 5784 5784 5784 5783 5783 5782 5782 5781 5780 5780 5779 5779 5779 5778 5778 5778 5777 5776 5776 5776 5775
5742 5743 5745 5746 5747 5748 5750 5751 5752 5753 5754 5756 5757 5758 5759 5760 5761 5762 5763 5764 5765 5766 5767 5767 5768 5768 5768 5769 5769 5770 5771 5771 5772 5773 5773 5774 5775 5776 5777 5778 5778 5779 5779 5780 5780 5780 5780 5781 5781 5781 5781 5782 5781 5781 5782 5782 5782 5782 5782 5782 5783 5782 5782 5782 5782 5782 5782 5782 5781 5780 5780 5779 5778 5778 5777 5777 5777 5776 5775 5775 5774 5773 5773 5772 5772
5738 5740 5742 5743 5744 5745 5747 5748 5750 5751 5752 5754 5755 5756 5756 5757 5758 5759 5760 5761 5762 5764 5764 5765 5766 5766 5766 5767 5767 5768 5769 5769 5770 5771 5771 5772 5773 5774 5774 5775 5776 5776 5777 5777 5777 5778 5778 5778 5779 5779 5779 5779 5779 5779 5780 5779 5779 5780 5780 5780 5780 5780 5780 5780 5779 5779 5779 5779 5778 5778 5777 5776 5776 5775 5775 5774 5774 5773 5773 5772 5771 5770 5770 5769 5769
5734 5737 5739 5740 5741 5743 5744 5745 5747 5748 5750 5751 5752 5753 5754 5755 5756 5756 5757 5758 5759 5761 5762 5763 5763 5764 5764 5764 5765 5765 5766 5767 5767 5768 5769 5770 5770 5771 5772 5772 5773 5773 5774 5774 5775 5775 5776 5776 5776 5776 5777 5777 5777 5777 5777 5777 5777 5777 5777 5777 5777 5777 5777 5777 5776 5776 5776 5776 5775 5775 5774 5773 5772 5772 5772 5771 5771 5770 5770 5769 5768 5767 5767 5766 5765
5731 5733 5735 5737 5738 5740 5741 5742 5744 5745 5747 5748 5749 5750 5751 5752 5753 5753 5754 5755 5756 5757 5759 5760 5761 5762 5762 5762 5763 5763 5763 5764 5765 5765 5766 5767 5767 5768 5769 5769 5770 5770 5770 5771 5772 5772 5773 5773 5774 5774 5774 5774 5774 5774 5774 5774 5774 5774 5774 5774 5774 5774 5774 5773 5773 5773 5772 5772 5772 5772 5771 5770 5769 5769 5768 5768 5768 5767 5766 5766 5765 5764 5763 5762 5762
5727 5729 5732 5733 5735 5736 5738 5739 5741 5742 5744 5745 5746 5747 5748 5748 5748 5750 5751 5751 5753 5754 5755 5757 5758 5759 5759 5760 5760 5760 5761 5761 5762 5762 5763 5764 5765 5765 5766 5766 5767 5767 5767 5768 5768 5769 5770 5770 5770 5770 5771 5771 5771 5771 5771 5771 5771 5771 5771 5771 5771 5771 5771 5770 5770 5769 5769 5769 5768 5768 5768 5767 5766 5765 5765 5764 5764 5764 5763 5763 5762 5761 5760 5759 5758
5724 5726 5728 5730 5731 5732 5734 5736 5737 5739 5741 5742 5742 5743 5744 5744 5744 5746 5748 5749 5750 5751 5752 5753 5754 5755 5756 5756 5757 5757 5758 5758 5759 5760 5760 5761 5761 5762 5763 5763 5764 5764 5764 5765 5765 5765 5766 5766 5767 5767 5767 5767 5768 5768 5768 5768 5768 5768 5768 5768 5768 5768 5768 5767 5767 5766 5766 5765 5765 5764 5764 5763 5762 5762 5761 5761 5760 5760 5759 5759 5758 5758 5757 5756 5755
5720 5722 5724 5726 5728 5730 5731 5733 5735 5736 5738 5738 5739 5740 5741 5742 5742 5744 5745 5746 5747 5748 5749 5750 5751 5752 5753 5753 5754 5754 5755 5755 5756 5756 5757 5757 5758 5759 5759 5760 5760 5761 5761 5761 5762 5762 5762 5763 5763 5764 5764 5764 5764 5764 5764 5764 5765 5765 5765 5765 5764 5764 5764 5764 5763 5763 5762 5761 5761 5760 5760 5759 5758 5758 5757 5757 5756 5756 5755 5754 5754 5754 5753 5752 5750
5717 5719 5721 5723 5725 5727 5729 5730 5732 5734 5735 5735 5736 5737 5738 5739 5740 5741 5742 5743 5744 5745 5746 5747 5747 5748 5749 5750 5750 5751 5752 5752 5752 5753 5753 5754 5754 5755 5755 5756 5757 5757 5757 5758 5758 5758 5759 5759 5760 5760 5760 5760 5760 5761 5760 5761 5761 5761 5761 5761 5761 5760 5760 5760 5759 5759 5758 5758 5757 5756 5756 5755 5754 5754 5753 5752 5752 5751 5750 5749 5749 5748 5747 5747 5745
5714 5716 5717 5720 5723 5725 5726 5728 5729 5731 5732 5732 5733 5734 5735 5736 5737 5738 5739 5740 5741 5742 5743 5744 5744 5745 5746 5746 5747 5748 5748 5749 5749 5749 5750 5750 5751 5751 5752 5752 5753 5753 5753 5754 5754 5754 5755 5755 5756 5756 5756 5756 5756 5756 5756 5756 5756 5756 5756 5756 5756 5756 5755 5755 5755 5754 5753 5753 5752 5752 5751 5750 5750 5749 5748 5747 5747 5746 5745 5743 5742 5742 5741 5740 5739
5711 5713 5715 5718 5720 5722 5723 5725 5726 5727 5729 5729 5730 5731 5732 5733 5734 5735 5736 5737 5738 5739 5740 5741 5741 5742 5742 5743 5744 5744 5745 5745 5746 5746 5746 5747 5747 5747 5748 5748 5749 5749 5749 5749 5750 5750 5750 5751 5751 5751 5751 5752 5752 5752 5752 5752 5751 5751 5751 5751 5751 5750 5750 5749 5749 5748 5747 5747 5746 5746 5745 5745 5744 5743 5742 5742 5741 5740 5739 5738 5736 5735 5734 5733 5732
5709 5711 5714 5716 5717 5719 5720 5722 5723 5724 5725 5726 5727 5728 5729 5730 5731 5733 5734 5734 5735 5736 5737 5737 5738 5739 5739 5740 5740 5740 5741 5741 5741 5742 5742 5743 5743 5744 5744 5744 5744 5745 5745 5745 5745 5746 5746 5746 5746 5746 5746 5747 5747 5746 5746 5746 5746 5746 5746 5746 5745 5745 5744 5744 5743 5742 5741 5741 5740 5739 5738 5738 5737 5736 5736 5735 5734 5733 5732 5730 5729 5728 5726 5725 5725
5707 5709 5711 5713 5714 5716 5718 5719 5720 5721 5722 5723 5724 5725 5726 5727 5728 5729 5730 5731 5732 5732 5733 5734 5734 5735 5736 5736 5736 5737 5737 5737 5737 5738 5738 5739 5739 5739 5740 5740 5740 5740 5740 5740 5740 5741 5741 5740 5740 5740 5740 5741 5741 5740 5740 5740 5740 5740 5740 5740 5740 5739 5738 5737 5737 5736 5735 5734 5733 5733 5732 5731 5730 5729 5728 5727 5726 5725 5724 5723 5721 5720 5718 5718 5717
5705 5706 5708 5709 5710 5712 5714 5715 5717 5718 5719 5720 5721 5722 5723 5724 5725 5726 5726 5727 5728 5729 5729 5730 5730 5731 5732 5732 5732 5733 5733 5733 5733 5734 5734 5734 5735 5735 5735 5735 5735 5735 5735 5736 5735 5735 5735 5735 5735 5734 5734 5734 5734 5734 5734 5734 5733 5733 5734 5734 5733 5732 5731 5730 5729 5729 5728 5726 5725 5724 5724 5723 5721 5720 5720 5719 5718 5716 5715 5714 5712 5711 5710 5709 5708
5703 5704 5706 5706 5708 5709 5710 5712 5713 5715 5716 5717 5718 5719 5720 5721 5721 5722 5723 5723 5724 5725 5725 5726 5726 5728 5728 5728 5728 5728 5729 5728 5729 5729 5730 5730 5731 5731 5731 5731 5731 5731 5731 5731 5730 5730 5730 5729 5729 5729 5728 5727 5727 5727 5727 5727 5726 5726 5726 5726 5726 5724 5723 5723 5721 5720 5720 5719 5717 5716 5715 5714 5713 5712 5711 5710 5709 5708 5707 5706 5704 5703 5702 5701 5700
5700 5702 5704 5705 5706 5707 5708 5709 5711 5712 5713 5715 5715 5715 5715 5716 5717 5718 5719 5719 5720 5721 5722 5722 5723 5724 5724 5723 5723 5724 5724 5724 5724 5725 5726 5726 5726 5726 5726 5726 5726 5725 5725 5725 5724 5724 5724 5723 5724 5724 5722 5721 5720 5720 5720 5719 5719 5719 5718 5717 5717 5716 5715 5715 5713 5712 5711 5710 5709 5708 5707 5706 5705 5704 5703 5702 5701 5700 5698 5697 5696 5694 5694 5693 5692
5697 5699 5701 5703 5704 5704 5705 5706 5707 5709 5710 5712 5712 5712 5712 5712 5713 5714 5715 5716 5716 5717 5718 5718 5718 5719 5719 5719 5719 5719 5719 5720 5720 5721 5721 5721 5721 5721 5721 5721 5720 5720 5719 5719 5718 5718 5717 5716 5717 5718 5716 5714 5714 5713 5713 5712 5712 5711 5710 5709 5708 5707 5706 5706 5705 5704 5703 5702 5701 5700 5699 5698 5697 5696 5695 5694 5693 5692 5690 5688 5687 5686 5685 5685 5685
5693 5695 5697 5699 5700 5701 5702 5702 5704 5705 5706 5708 5708 5708 5709 5709 5710 5710 5711 5712 5712 5713 5713 5714 5714 5714 5714 5714 5714 5714 5714 5714 5715 5715 5715 5715 5715 5715 5715 5715 5715 5714 5714 5713 5712 5711 5711 5710 5710 5710 5709 5707 5707 5706 5705 5704 5703 5703 5701 5700 5699 5698 5697 5697 5696 5695 5694 5693 5692 5691 5691 5689 5687 5686 5686 5685 5683 5684 5682 5679 5678 5678 5677 5677 5677
5689 5690 5692 5694 5696 5697 5698 5699 5699 5700 5701 5703 5704 5704 5705 5705 5705 5706 5707 5707 5708 5708 5709 5709 5709 5709 5709 5709 5709 5709 5709 5709 5709 5709 5709 5709 5709 5709 5709 5709 5709 5708 5708 5707 5706 5705 5705 5704 5703 5703 5701 5700 5699 5698 5697 5696 5694 5693 5692 5690 5689 5688 5687 5687 5686 5685 5684 5684 5683 5682 5681 5680 5678 5677 5676 5674 5674 5675 5673 5670 5669 5670 5669 5668 5668
5684 5686 5687 5689 5690 5692 5693 5694 5695 5695 5697 5698 5698 5699 5700 5701 5701 5702 5702 5703 5703 5704 5704 5704 5704 5704 5704 5704 5703 5703 5703 5703 5703 5703 5703 5704 5704 5704 5703 5703 5702 5702 5701 5700 5699 5699 5698 5697 5696 5695 5694 5692 5691 5690 5688 5687 5685 5684 5682 5680 5679 5678 5677 5676 5675 5674 5674 5673 5673 5672 5671 5670 5669 5667 5664 5664 5665 5666 5664 5661 5661 5661 5660 5659 5659
5680 5681 5682 5683 5684 5686 5687 5688 5689 5691 5692 5693 5693 5694 5695 5696 5696 5697 5697 5697 5698 5698 5698 5698 5698 5698 5698 5698 5698 5697 5697 5697 5697 5697 5697 5697 5697 5697 5696 5696 5695 5694 5693 5693 5692 5691 5690 5689 5687 5686 5685 5683 5682 5680 5678 5677 5675 5674 5672 5670 5669 5668 5666 5665 5664 5663 5662 5662 5661 5660 5660 5660 5658 5655 5654 5655 5656 5655 5654 5653 5653 5652 5651 5651 5650
5675 5676 5677 5678 5679 5681 5682 5683 5684 5685 5687 5687 5688 5688 5689 5690 5690 5691 5691 5691 5692 5692 5692 5692 5692 5691 5692 5691 5691 5690 5690 5689 5689 5690 5690 5689 5689 5688 5688 5687 5687 5686 5685 5685 5684 5683 5681 5679 5678 5677 5676 5674 5672 5671 5669 5667 5665 5663 5661 5659 5658 5657 5655 5653 5652 5652 5651 5651 5650 5650 5650 5649 5646 5644 5645 5646 5644 5643 5644 5645 5643 5643 5642 5642 5642
5671 5672 5673 5674 5675 5676 5677 5678 5679 5680 5681 5681 5682 5683 5683 5684 5684 5685 5685 5685 5685 5685 5685 5685 5685 5685 5684 5684 5684 5683 5683 5682 5682 5682 5682 5681 5681 5680 5679 5679 5678 5678 5677 5676 5676 5674 5672 5671 5669 5668 5666 5665 5663 5661 5659 5657 5655 5652 5650 5648 5646 5645 5643 5642 5641 5640 5639 5639 5639 5639 5639 5637 5635 5636 5636 5635 5633 5633 5634 5634 5633 5633 5633 5632 5632
5666 5667 5668 5669 5670 5671 5672 5672 5673 5674 5675 5676 5677 5677 5678 5678 5678 5679 5679 5679 5679 5679 5679 5678 5678 5678 5677 5677 5676 5676 5675 5675 5675 5675 5674 5673 5673 5672 5671 5670 5670 5668 5667 5666 5665 5664 5662 5660 5659 5657 5656 5654 5652 5650 5648 5646 5644 5642 5639 5636 5634 5633 5631 5630 5629 5628 5627 5626 5627 5627 5626 5624 5624 5625 5624 5623 5622 5623 5624 5623 5623 5624 5623 5623 5623
5661 5662 5664 5664 5665 5666 5666 5667 5668 5669 5670 5670 5671 5672 5673 5673 5673 5673 5673 5672 5672 5672 5672 5672 5671 5671 5671 5670 5669 5669 5668 5668 5667 5667 5666 5665 5664 5663 5662 5661 5660 5658 5657 5655 5654 5652 5650 5648 5647 5645 5644 5642 5640 5638 5636 5635 5633 5631 5628 5626 5623 5621 5619 5618 5617 5616 5616 5615 5614 5614 5614 5613 5612 5612 5611 5610 5611 5612 5613 5613 5613 5614 5614 5615 5616
5656 5657 5658 5659 5660 5660 5661 5661 5662 5663 5664 5665 5665 5666 5667 5667 5667 5667 5667 5666 5666 5665 5665 5665 5664 5664 5664 5663 5662 5661 5660 5660 5659 5658 5657 5656 5655 5655 5654 5652 5650 5648 5647 5645 5642 5640 5639 5637 5635 5633 5632 5630 5628 5626 5624 5623 5621 5619 5617 5614 5612 5610 5608 5607 5606 5605 5605 5604 5603 5603 5602 5601 5600 5599 5599 5599 5600 5601 5602 5602 5604 5605 5606 5606 5607
5651 5652 5652 5653 5654 5654 5655 5656 5657 5657 5658 5658 5659 5660 5660 5660 5661 5661 5660 5659 5659 5658 5658 5658 5657 5656 5656 5655 5654 5653 5652 5651 5650 5649 5648 5647 5646 5645 5643 5642 5640 5638 5636 5635 5632 5629 5628 5626 5625 5623 5621 5619 5617 5615 5613 5611 5610 5608 5606 5604 5601 5599 5597 5596 5596 5595 5595 5594 5594 5593 5592 5591 5589 5589 5589 5590 5590 5591 5592 5593 5594 5596 5598 5598 5599
5645 5646 5646 5647 5648 5648 5649 5650 5650 5651 5651 5651 5651 5652 5653 5653 5653 5653 5652 5652 5651 5651 5650 5650 5649 5648 5647 5646 5645 5645 5644 5643 5642 5640 5639 5637 5636 5635 5633 5632 5630 5628 5626 5625 5622 5620 5618 5616 5615 5613 5611 5609 5607 5605 5603 5601 5599 5597 5595 5593 5591 5589 5587 5586 5586 5585 5585 5584 5584 5584 5583 5582 5581 5581 5581 5581 5582 5583 5583 5584 5585 5587 5588 5590 5591
5638 5639 5640 5641 5642 5642 5643 5643 5644 5644 5644 5644 5644 5644 5645 5645 5646 5646 5645 5644 5644 5643 5642 5642 5641 5640 5639 5638 5637 5636 5635 5634 5633 5632 5630 5629 5627 5626 5624 5623 5621 5619 5617 5615 5613 5611 5609 5607 5606 5604 5602 5600 5598 5596 5594 5592 5590 5588 5586 5584 5581 5580 5578 5577 5576 5575 5575 5574 5575 5575 5575 5574 5574 5574 5574 5574 5575 5575 5575 5576 5577 5578 5580 5581 5583
5632 5633 5634 5635 5635 5636 5636 5637 5637 5637 5637 5637 5637 5637 5637 5638 5638 5638 5638 5638 5637 5636 5635 5634 5633 5632 5631 5630 5629 5628 5627 5626 5625 5623 5622 5621 5619 5617 5616 5614 5613 5611 5609 5607 5605 5603 5601 5599 5597 5595 5593 5591 5589 5587 5586 5584 5581 5579 5577 5575 5573 5571 5569 5568 5567 5566 5565 5565 5565 5565 5566 5566 5567 5567 5568 5568 5568 5569 5569 5569 5570 5570 5571 5573 5574
5626 5627 5627 5628 5629 5630 5630 5630 5630 5631 5631 5630 5630 5630 5630 5630 5631 5631 5631 5631 5630 5629 5628 5627 5626 5625 5624 5623 5622 5621 5619 5618 5617 5616 5614 5613 5611 5610 5608 5606 5605 5603 5601 5599 5597 5595 5593 5592 5590 5587 5585 5584 5582 5580 5578 5576 5573 5570 5568 5566 5564 5562 5560 5558 5557 5556 5555 5555 5555 5556 5556 5557 5558 5560 5561 5561 5562 5563 5563 5563 5563 5563 5564 5565 5567
5620 5620 5621 5621 5622 5623 5623 5623 5623 5623 5623 5623 5623 5623 5623 5623 5623 5624 5624 5623 5623 5622 5621 5620 5619 5618 5617 5616 5615 5614 5613 5611 5610 5609 5607 5605 5603 5602 5600 5598 5597 5595 5593 5592 5590 5588 5586 5585 5583 5581 5578 5577 5575 5572 5570 5568 5565 5562 5559 5557 5554 5552 5550 5547 5546 5544 5544 5544 5544 5545 5546 5547 5549 5551 5553 5555 5556 5557 5557 5557 5557 5557 5558 5559 5561
5613 5614 5614 5615 5616 5616 5617 5617 5616 5617 5617 5617 5617 5616 5616 5616 5617 5617 5617 5616 5615 5614 5613 5613 5612 5611 5610 5609 5608 5607 5606 5604 5603 5601 5600 5598 5597 5595 5593 5592 5590 5589 5587 5585 5584 5582 5580 5578 5576 5574 5572 5570 5567 5565 5562 5559 5556 5553 5550 5547 5545 5542 5539 5536 5534 5532 5531 5531 5532 5533 5534 5536 5539 5542 5546 5548 5550 5551 5551 5551 5551 5551 5553 5554 5556
5607 5608 5608 5609 5609 5610 5611 5610 5610 5610 5610 5610 5610 5610 5610 5610 5610 5610 5609 5608 5607 5607 5606 5606 5605 5604 5602 5601 5601 5600 5599 5598 5596 5595 5594 5592 5591 5589 5588 5586 5585 5583 5582 5580 5578 5576 5574 5572 5570 5567 5565 5563 5560 5558 5555 5551 5548 5545 5542 5539 5536 5533 5530 5527 5524 5523 5521 5521 5520 5521 5523 5526 5530 5534 5538 5541 5544 5545 5546 5546 5546 5547 5548 5550 5552
5601 5601 5602 5602 5603 5603 5604 5604 5604 5604 5603 5603 5603 5603 5603 5603 5603 5603 5602 5601 5600 5600 5599 5599 5598 5597 5596 5595 5594 5593 5592 5591 5590 5590 5588 5587 5586 5584 5583 5582 5580 5579 5577 5575 5573 5570 5568 5566 5564 5562 5559 5556 5554 5551 5548 5544 5542 5539 5536 5533 5530 5526 5523 5520 5518 5517 5516 5515 5515 5516 5517 5520 5523 5527 5531 5535 5538 5540 5541 5542 5543 5544 5545 5546 5548
5595 5595 5595 5596 5596 5597 5597 5597 5598 5597 5597 5597 5597 5596 5596 5597 5597 5597 5596 5595 5594 5594 5594 5593 5592 5591 5591 5590 5589 5588 5587 5586 5585 5585 5584 5583 5582 5580 5579 5577 5576 5575 5572 5570 5568 5565 5563 5561 5559 5557 5554 5551 5548 5545 5542 5539 5537 5535 5532 5529 5526 5522 5519 5516 5515 5514 5514 5514 5515 5515 5516 5518 5520 5523 5526 5530 5533 5536 5537 5538 5540 5541 5542 5543 5544
5589 5589 5589 5589 5590 5591 5591 5591 5592 5591 5591 5591 5591 5591 5591 5591 5591 5591 5591 5590 5590 5590 5589 5588 5588 5587 5586 5585 5585 5584 5583 5582 5581 5580 5579 5578 5577 5576 5575 5573 5572 5570 5568 5566 5563 5560 5558 5556 5554 5552 5549 5546 5543 5540 5538 5536 5534 5532 5529 5526 5524 5521 5517 5515 5514 5514 5514 5514 5515 5516 5516 5517 5519 5521 5523 5525 5528 5531 5532 5534 5536 5538 5539 5540 5541
5583 5583 5583 5584 5584 5585 5585 5586 5586 5586 5586 5586 5586 5586 5586 5587 5587 5587 5586 5586 5586 5586 5585 5584 5584 5583 5582 5582 5581 5580 5579 5579 5577 5576 5575 5574 5573 5572 5570 5569 5568 5566 5564 5561 5559 5556 5554 5552 5550 5547 5544 5541 5539 5537 5535 5534 5532 5529 5527 5525 5522 5520 5517 5515 5515 5514 5514 5514 5515 5516 5516 5516 5517 5518 5520 5522 5524 5527 5528 5530 5532 5534 5536 5537 5539
5577 5578 5578 5579 5579 5580 5581 5581 5581 5582 5582 5582 5582 5582 5582 5582 5583 5583 5583 5582 5583 5582 5582 5581 5580 5580 5579 5578 5577 5577 5576 5575 5574 5572 5571 5570 5569 5568 5566 5565 5563 5562 5560 5557 5555 5553 5550 5548 5546 5543 5540 5538 5536 5534 5533 5531 5530 5528 5525 5523 5521 5519 5518 5516 5516 5515 5514 5514 5514 5515 5515 5515 5516 5517 5518 5520 5522 5524 5525 5527 5529 5531 5532 5534 5535
5572 5573 5573 5574 5575 5576 5576 5577 5577 5577 5578 5578 5578 5578 5578 5579 5579 5579 5579 5579 5579 5579 5579 5578 5577 5577 5576 5575 5574 5573 5572 5571 5570 5569 5567 5566 5565 5564 5562 5561 5560 5558 5556 5554 5552 5550 5547 5545 5542 5540 5537 5535 5533 5532 5531 5529 5528 5526 5525 5523 5521 5520 5519 5517 5516 5515 5515 5514 5514 5514 5514 5515 5515 5516 5518 5519 5520 5522 5523 5525 5526 5527 5528 5530 5531
5568 5568 5569 5570 5570 5571 5572 5572 5573 5573 5573 5574 5574 5574 5575 5575 5576 5576 5576 5576 5576 5576 5575 5575 5574 5573 5573 5572 5571 5570 5569 5567 5566 5565 5563 5562 5561 5560 5558 5557 5556 5554 5553 5551 5549 5547 5545 5543 5540 5537 5535 5533 5531 5530 5529 5528 5527 5525 5524 5523 5521 5520 5519 5518 5516 5515 5514 5514 5513 5513 5513 5514 5514 5515 5516 5517 5519 5520 5521 5522 5523 5524 5525 5526 5527
5563 5564 5565 5566 5566 5567 5568 5568 5569 5569 5570 5570 5571 5571 5572 5572 5572 5572 5573 5573 5573 5572 5572 5571 5571 5570 5570 5569 5568 5566 5565 5564 5562 5561 5560 5558 5557 5556 5554 5553 5552 5551 5549 5548 5546 5545 5543 5541 5538 5536 5533 5531 5529 5528 5527 5526 5525 5524 5523 5522 5521 5520 5518 5517 5516 5515 5514 5513 5513 5513 5513 5513 5513 5514 5515 5515 5516 5517 5518 5519 5520 5521 5521 5522 5523
5559 5560 5561 5562 5562 5563 5564 5564 5565 5566 5566 5567 5567 5568 5569 5569 5569 5569 5569 5569 5569 5569 5569 5568 5568 5567 5566 5565 5564 5563 5562 5560 5559 5557 5556 5554 5553 5552 5550 5549 5548 5547 5546 5545 5543 5542 5540 5538 5536 5534 5532 5530 5528 5526 5525 5524 5523 5522 5521 5520 5520 5518 5517 5516 5515 5514 5514 5513 5513 5512 5512 5512 5512 5513 5513 5514 5514 5515 5516 5516 5517 5518 5518 5519 5520
5555 5556 5557 5558 5559 5560 5560 5561 5562 5562 5563 5564 5564 5565 5565 5566 5566 5566 5566 5566 5566 5566 5566 5565 5565 5564 5563 5562 5561 5559 5558 5556 5555 5553 5552 5550 5549 5548 5547 5546 5544 5543 5542 5541 5540 5539 5537 5535 5533 5531 5530 5528 5526 5525 5523 5522 5522 5521 5520 5519 5518 5517 5517 5516 5515 5514 5513 5513 5512 5512 5511 5511 5511 5511 5511 5512 5512 5513 5513 5514 5515 5515 5516 5517 5517
5552 5553 5554 5554 5555 5556 5557 5558 5559 5559 5560 5561 5561 5562 5562 5563 5563 5563 5563 5563 5563 5563 5562 5562 5561 5560 5559 5558 5557 5555 5554 5552 5551 5549 5548 5547 5545 5544 5543 5542 5541 5540 5539 5538 5537 5535 5534 5532 5530 5529 5527 5526 5524 5523 5522 5521 5520 5519 5518 5517 5517 5516 5515 5515 5514 5513 5512 5512 5511 5511 5510 5510 5509 5509 5509 5509 5510 5510 5511 5512 5512 5513 5513 5514 5515
5548 5549 5550 5551 5552 5553 5554 5555 5556 5556 5557 5558 5558 5559 5559 5560 5560 5560 5560 5560 5560 5560 5559 5558 5558 5557 5556 5554 5553 5551 5550 5548 5547 5545 5544 5543 5542 5541 5540 5539 5538 5537 5536 5535 5534 5532 5531 5529 5528 5526 5525 5524 5522 5521 5520 5519 5518 5517 5516 5515 5514 5514 5513 5513 5512 5511 5511 5510 5510 5509 5509 5508 5508 5508 5508 5508 5508 5508 5509 5509 5510 5510 5511 5511 5512